QPF
0.00 0.00 0.00 0.01 0.03 0.07 0.10 0.11 0.19 0.15 0.13 0.15 0.12 0.10 0.10 0.06 0.04 0.04 0.04 0.09 0.07 0.03 0.03 0.03 0.07 0.06 0.08 0.09 0.04 0.04 0.02 0.04 0.05 0.07 0.03 0.01 0.00 0.00 0.00 0.00 0.00 0.00 0.00
0.00 0.00 0.01 0.03 0.04 0.05 0.08 0.11 0.17 0.24 0.25 0.26 0.19 0.11 0.10 0.10 0.07 0.08 0.09 0.13 0.11 0.06 0.05 0.04 0.09 0.04 0.04 0.13 0.10 0.07 0.02 0.05 0.04 0.03 0.03 0.01 0.01 0.01 0.00 0.00 0.00 0.00 0.00
0.00 0.00 0.00 0.01 0.01 0.03 0.05 0.09 0.14 0.22 0.29 0.30 0.21 0.13 0.08 0.14 0.16 0.15 0.11 0.13 0.14 0.10 0.09 0.07 0.06 0.04 0.04 0.14 0.16 0.12 0.04 0.04 0.01 0.01 0.01 0.00 0.01 0.01 0.00 0.00 0.00 0.00 0.00
0.00 0.00 0.00 0.00 0.00 0.01 0.02 0.04 0.11 0.11 0.11 0.12 0.11 0.08 0.05 0.12 0.22 0.20 0.13 0.12 0.16 0.16 0.11 0.08 0.05 0.03 0.01 0.03 0.06 0.12 0.10 0.04 0.01 0.01 0.02 0.01 0.01 0.00 0.00 0.00 0.00 0.00 0.00
0.00 0.00 0.00 0.00 0.00 0.00 0.01 0.01 0.02 0.01 0.02 0.05 0.09 0.08 0.04 0.10 0.22 0.22 0.14 0.18 0.25 0.20 0.10 0.08 0.08 0.06 0.03 0.02 0.03 0.10 0.11 0.06 0.02 0.02 0.05 0.05 0.02 0.00 0.00 0.00 0.00 0.00 0.00
0.00 0.00 0.00 0.00 0.00 0.00 0.00 0.00 0.00 0.00 0.00 0.02 0.06 0.05 0.04 0.12 0.16 0.18 0.16 0.23 0.29 0.20 0.10 0.09 0.10 0.15 0.14 0.08 0.04 0.05 0.05 0.06 0.05 0.04 0.05 0.06 0.02 0.00 0.00 0.00 0.00 0.00 0.00
0.00 0.00 0.00 0.00 0.00 0.00 0.00 0.00 0.00 0.00 0.00 0.00 0.01 0.01 0.04 0.11 0.09 0.10 0.19 0.23 0.27 0.21 0.15 0.14 0.15 0.16 0.16 0.17 0.14 0.07 0.03 0.03 0.04 0.07 0.09 0.11 0.08 0.04 0.01 0.00 0.00 0.00 0.00
0.00 0.00 0.00 0.00 0.00 0.01 0.00 0.00 0.00 0.00 0.00 0.00 0.01 0.01 0.03 0.09 0.08 0.05 0.14 0.22 0.16 0.11 0.08 0.10 0.12 0.13 0.13 0.12 0.11 0.06 0.03 0.02 0.02 0.05 0.11 0.14 0.13 0.11 0.05 0.02 0.00 0.00 0.00
0.00 0.00 0.00 0.00 0.00 0.01 0.01 0.01 0.01 0.01 0.01 0.02 0.03 0.02 0.03 0.05 0.06 0.05 0.04 0.06 0.10 0.09 0.05 0.04 0.07 0.10 0.11 0.10 0.07 0.03 0.04 0.02 0.02 0.02 0.05 0.06 0.07 0.08 0.08 0.04 0.01 0.00 0.00
0.00 0.00 0.00 0.01 0.01 0.01 0.01 0.02 0.02 0.03 0.05 0.12 0.09 0.04 0.02 0.02 0.03 0.05 0.08 0.06 0.10 0.14 0.13 0.11 0.11 0.11 0.08 0.07 0.07 0.08 0.09 0.06 0.04 0.02 0.02 0.03 0.06 0.08 0.10 0.11 0.04 0.01 0.00
0.00 0.00 0.00 0.02 0.02 0.02 0.02 0.03 0.01 0.02 0.07 0.18 0.21 0.12 0.04 0.04 0.08 0.09 0.09 0.14 0.21 0.25 0.17 0.12 0.13 0.11 0.08 0.08 0.09 0.12 0.15 0.13 0.10 0.06 0.04 0.03 0.05 0.12 0.15 0.17 0.09 0.03 0.00
0.00 0.00 0.01 0.01 0.01 0.01 0.01 0.02 0.01 0.01 0.04 0.11 0.12 0.05 0.03 0.05 0.10 0.14 0.08 0.09 0.12 0.13 0.11 0.10 0.11 0.10 0.10 0.11 0.16 0.21 0.18 0.13 0.07 0.04 0.03 0.03 0.03 0.08 0.14 0.17 0.12 0.07 0.01
0.00 0.00 0.01 0.01 0.00 0.00 0.00 0.00 0.00 0.00 0.00 0.02 0.02 0.01 0.01 0.04 0.06 0.09 0.07 0.04 0.04 0.05 0.07 0.08 0.09 0.09 0.09 0.10 0.12 0.16 0.15 0.09 0.05 0.03 0.02 0.02 0.03 0.07 0.11 0.14 0.12 0.08 0.02
0.00 0.00 0.00 0.01 0.00 0.00 0.00 0.00 0.00 0.00 0.00 0.00 0.00 0.00 0.00 0.01 0.03 0.04 0.03 0.01 0.01 0.01 0.01 0.02 0.02 0.02 0.03 0.06 0.09 0.11 0.15 0.12 0.06 0.03 0.03 0.03 0.01 0.01 0.04 0.10 0.09 0.07 0.03
0.00 0.00 0.00 0.01 0.01 0.01 0.01 0.01 0.02 0.04 0.02 0.01 0.01 0.01 0.01 0.01 0.02 0.04 0.01 0.00 0.00 0.00 0.00 0.01 0.02 0.03 0.04 0.04 0.08 0.08 0.13 0.13 0.09 0.07 0.08 0.05 0.02 0.02 0.02 0.06 0.10 0.10 0.07
0.00 0.00 0.00 0.01 0.02 0.02 0.01 0.02 0.04 0.07 0.05 0.03 0.02 0.03 0.03 0.02 0.03 0.03 0.01 0.00 0.00 0.00 0.00 0.01 0.03 0.06 0.06 0.09 0.12 0.13 0.16 0.13 0.08 0.06 0.10 0.12 0.10 0.06 0.02 0.02 0.05 0.06 0.08
0.00 0.00 0.00 0.01 0.02 0.03 0.03 0.04 0.05 0.08 0.07 0.04 0.04 0.06 0.08 0.05 0.03 0.01 0.00 0.00 0.00 0.00 0.00 0.01 0.04 0.06 0.09 0.15 0.13 0.16 0.19 0.16 0.11 0.06 0.06 0.09 0.11 0.15 0.12 0.06 0.04 0.04 0.08
0.00 0.00 0.00 0.00 0.01 0.02 0.05 0.09 0.10 0.10 0.10 0.08 0.08 0.08 0.12 0.09 0.04 0.01 0.01 0.01 0.00 0.00 0.00 0.01 0.02 0.04 0.11 0.14 0.12 0.19 0.21 0.20 0.19 0.13 0.08 0.05 0.05 0.07 0.12 0.12 0.10 0.10 0.13
0.00 0.00 0.00 0.00 0.00 0.01 0.02 0.05 0.07 0.08 0.10 0.14 0.15 0.16 0.17 0.13 0.08 0.04 0.06 0.09 0.06 0.01 0.00 0.00 0.01 0.04 0.07 0.09 0.08 0.11 0.18 0.19 0.16 0.12 0.08 0.04 0.03 0.03 0.04 0.07 0.10 0.10 0.10
0.00 0.00 0.00 0.00 0.00 0.00 0.00 0.01 0.03 0.07 0.09 0.12 0.14 0.14 0.15 0.17 0.17 0.20 0.22 0.19 0.13 0.05 0.01 0.02 0.02 0.04 0.04 0.06 0.03 0.02 0.05 0.10 0.13 0.11 0.07 0.03 0.02 0.01 0.01 0.02 0.04 0.05 0.07
0.00 0.00 0.00 0.00 0.00 0.00 0.00 0.00 0.01 0.02 0.02 0.03 0.07 0.13 0.21 0.22 0.26 0.31 0.29 0.22 0.12 0.06 0.03 0.01 0.01 0.01 0.02 0.06 0.04 0.02 0.05 0.05 0.07 0.08 0.06 0.03 0.01 0.00 0.00 0.00 0.02 0.04 0.08
0.00 0.00 0.00 0.00 0.00 0.00 0.00 0.00 0.00 0.00 0.01 0.03 0.06 0.12 0.17 0.23 0.32 0.33 0.23 0.14 0.08 0.05 0.05 0.05 0.02 0.02 0.08 0.09 0.04 0.06 0.11 0.09 0.07 0.04 0.02 0.02 0.01 0.00 0.00 0.00 0.01 0.04 0.09
0.00 0.00 0.00 0.00 0.00 0.00 0.00 0.00 0.00 0.00 0.00 0.01 0.02 0.05 0.11 0.20 0.30 0.24 0.13 0.07 0.05 0.03 0.03 0.04 0.02 0.01 0.03 0.09 0.09 0.06 0.04 0.04 0.04 0.03 0.01 0.00 0.00 0.00 0.01 0.02 0.03 0.05 0.09
0.00 0.00 0.00 0.00 0.00 0.00 0.00 0.00 0.00 0.00 0.00 0.00 0.00 0.01 0.01 0.03 0.06 0.05 0.03 0.02 0.02 0.03 0.02 0.02 0.04 0.02 0.01 0.02 0.05 0.06 0.02 0.01 0.01 0.01 0.01 0.00 0.00 0.01 0.01 0.03 0.05 0.07 0.15
0.00 0.00 0.00 0.00 0.00 0.00 0.00 0.00 0.00 0.00 0.00 0.00 0.00 0.00 0.01 0.02 0.01 0.00 0.00 0.01 0.01 0.02 0.03 0.03 0.03 0.02 0.04 0.05 0.05 0.08 0.05 0.02 0.01 0.00 0.00 0.00 0.00 0.00 0.00 0.01 0.04 0.12 0.22
0.00 0.00 0.00 0.00 0.00 0.00 0.00 0.00 0.00 0.00 0.00 0.00 0.00 0.00 0.00 0.01 0.00 0.00 0.00 0.00 0.01 0.01 0.02 0.03 0.03 0.03 0.06 0.14 0.15 0.17 0.15 0.08 0.03 0.01 0.00 0.01 0.01 0.01 0.01 0.01 0.02 0.07 0.16
MSLP
1009.58 1009.56 1009.53 1009.49 1009.46 1009.45 1009.48 1009.57 1009.73 1009.97 1010.27 1010.61 1010.96 1011.28 1011.57 1011.79 1011.96 1012.10 1012.23 1012.38 1012.59 1012.87 1013.23 1013.68 1014.18 1014.72 1015.26 1015.78 1016.26 1016.71 1017.11 1017.48 1017.83 1018.16 1018.47 1018.75 1018.98 1019.14 1019.22 1019.22 1019.16 1019.04 1018.90
1009.86 1009.89 1009.89 1009.85 1009.77 1009.69 1009.65 1009.68 1009.81 1010.04 1010.36 1010.73 1011.12 1011.48 1011.77 1011.98 1012.10 1012.17 1012.22 1012.29 1012.44 1012.68 1013.04 1013.49 1014.01 1014.57 1015.12 1015.64 1016.11 1016.54 1016.93 1017.30 1017.67 1018.05 1018.43 1018.80 1019.14 1019.42 1019.61 1019.71 1019.72 1019.65 1019.53
1009.93 1010.04 1010.09 1010.06 1009.98 1009.88 1009.80 1009.79 1009.90 1010.13 1010.47 1010.88 1011.31 1011.70 1012.01 1012.22 1012.31 1012.33 1012.33 1012.34 1012.44 1012.64 1012.96 1013.39 1013.90 1014.44 1014.97 1015.46 1015.89 1016.28 1016.63 1016.99 1017.36 1017.77 1018.22 1018.68 1019.13 1019.53 1019.84 1020.05 1020.15 1020.16 1020.08
1009.79 1009.98 1010.10 1010.13 1010.08 1009.98 1009.89 1009.87 1009.96 1010.20 1010.55 1010.99 1011.46 1011.89 1012.23 1012.44 1012.54 1012.54 1012.50 1012.48 1012.53 1012.69 1012.97 1013.37 1013.84 1014.33 1014.81 1015.25 1015.63 1015.97 1016.28 1016.60 1016.97 1017.40 1017.89 1018.42 1018.96 1019.46 1019.88 1020.20 1020.40 1020.49 1020.49
1009.48 1009.75 1009.95 1010.06 1010.06 1010.00 1009.92 1009.90 1009.99 1010.22 1010.57 1011.03 1011.51 1011.97 1012.34 1012.59 1012.70 1012.71 1012.67 1012.63 1012.66 1012.79 1013.03 1013.38 1013.80 1014.24 1014.67 1015.05 1015.37 1015.65 1015.92 1016.21 1016.56 1016.99 1017.49 1018.06 1018.65 1019.22 1019.72 1020.13 1020.42 1020.60 1020.69
1009.08 1009.42 1009.72 1009.91 1009.98 1009.97 1009.92 1009.90 1009.97 1010.18 1010.52 1010.96 1011.45 1011.92 1012.32 1012.59 1012.74 1012.78 1012.76 1012.74 1012.76 1012.88 1013.09 1013.40 1013.76 1014.15 1014.52 1014.85 1015.12 1015.36 1015.59 1015.84 1016.17 1016.57 1017.06 1017.63 1018.23 1018.82 1019.37 1019.84 1020.21 1020.47 1020.65
1008.67 1009.07 1009.45 1009.72 1009.87 1009.91 1009.89 1009.87 1009.93 1010.10 1010.40 1010.81 1011.27 1011.74 1012.15 1012.45 1012.64 1012.72 1012.75 1012.75 1012.79 1012.89 1013.09 1013.36 1013.68 1014.02 1014.35 1014.64 1014.88 1015.08 1015.28 1015.51 1015.80 1016.17 1016.62 1017.15 1017.72 1018.30 1018.85 1019.35 1019.77 1020.12 1020.39
1008.28 1008.73 1009.18 1009.53 1009.75 1009.85 1009.85 1009.83 1009.86 1009.98 1010.23 1010.58 1011.00 1011.44 1011.85 1012.17 1012.40 1012.53 1012.60 1012.64 1012.70 1012.81 1012.99 1013.23 1013.52 1013.83 1014.12 1014.38 1014.61 1014.80 1014.99 1015.20 1015.45 1015.78 1016.18 1016.64 1017.15 1017.68 1018.20 1018.70 1019.16 1019.57 1019.95
1007.94 1008.43 1008.93 1009.34 1009.62 1009.76 1009.79 1009.77 1009.77 1009.85 1010.03 1010.32 1010.68 1011.08 1011.47 1011.80 1012.05 1012.23 1012.33 1012.41 1012.50 1012.61 1012.78 1013.00 1013.26 1013.54 1013.81 1014.06 1014.27 1014.47 1014.66 1014.86 1015.09 1015.37 1015.71 1016.10 1016.54 1017.00 1017.48 1017.96 1018.44 1018.91 1019.37
1007.63 1008.14 1008.67 1009.13 1009.45 1009.63 1009.69 1009.68 1009.66 1009.70 1009.82 1010.05 1010.36 1010.71 1011.07 1011.40 1011.66 1011.86 1012.00 1012.11 1012.21 1012.32 1012.48 1012.67 1012.90 1013.15 1013.40 1013.64 1013.86 1014.07 1014.26 1014.46 1014.68 1014.93 1015.22 1015.54 1015.91 1016.30 1016.73 1017.18 1017.67 1018.19 1018.73
1007.32 1007.82 1008.37 1008.85 1009.21 1009.42 1009.51 1009.51 1009.50 1009.52 1009.62 1009.80 1010.06 1010.37 1010.70 1011.01 1011.28 1011.49 1011.64 1011.76 1011.87 1011.98 1012.11 1012.28 1012.47 1012.69 1012.91 1013.14 1013.36 1013.57 1013.78 1013.99 1014.21 1014.44 1014.70 1014.97 1015.28 1015.62 1016.00 1016.44 1016.93 1017.48 1018.09
1006.98 1007.47 1008.00 1008.48 1008.86 1009.10 1009.22 1009.26 1009.27 1009.31 1009.40 1009.56 1009.80 1010.08 1010.39 1010.68 1010.94 1011.15 1011.31 1011.43 1011.53 1011.63 1011.74 1011.87 1012.02 1012.19 1012.38 1012.59 1012.80 1013.01 1013.23 1013.45 1013.68 1013.91 1014.15 1014.40 1014.68 1014.99 1015.34 1015.76 1016.25 1016.82 1017.46
1006.63 1007.08 1007.57 1008.03 1008.40 1008.66 1008.82 1008.91 1008.97 1009.04 1009.16 1009.34 1009.57 1009.84 1010.13 1010.41 1010.66 1010.86 1011.02 1011.14 1011.24 1011.32 1011.40 1011.49 1011.60 1011.73 1011.87 1012.04 1012.23 1012.43 1012.65 1012.88 1013.11 1013.36 1013.60 1013.85 1014.12 1014.42 1014.76 1015.16 1015.65 1016.22 1016.88
1006.29 1006.69 1007.13 1007.54 1007.88 1008.14 1008.33 1008.47 1008.59 1008.73 1008.89 1009.11 1009.36 1009.63 1009.91 1010.18 1010.42 1010.62 1010.78 1010.90 1010.99 1011.06 1011.12 1011.18 1011.25 1011.34 1011.44 1011.56 1011.71 1011.89 1012.09 1012.32 1012.56 1012.82 1013.08 1013.35 1013.63 1013.93 1014.27 1014.66 1015.12 1015.67 1016.31
1006.03 1006.36 1006.71 1007.05 1007.35 1007.59 1007.80 1007.98 1008.17 1008.36 1008.59 1008.85 1009.12 1009.41 1009.70 1009.97 1010.20 1010.40 1010.57 1010.69 1010.79 1010.87 1010.93 1010.97 1011.01 1011.05 1011.11 1011.18 1011.29 1011.42 1011.60 1011.82 1012.06 1012.33 1012.61 1012.90 1013.20 1013.51 1013.85 1014.22 1014.66 1015.16 1015.75
1005.90 1006.15 1006.40 1006.65 1006.88 1007.09 1007.29 1007.50 1007.73 1007.98 1008.26 1008.55 1008.86 1009.17 1009.46 1009.73 1009.97 1010.17 1010.35 1010.50 1010.63 1010.72 1010.79 1010.84 1010.87 1010.89 1010.90 1010.93 1010.99 1011.08 1011.22 1011.41 1011.64 1011.92 1012.22 1012.53 1012.84 1013.17 1013.49 1013.85 1014.23 1014.67 1015.18
1005.93 1006.10 1006.25 1006.39 1006.53 1006.69 1006.86 1007.07 1007.32 1007.60 1007.91 1008.24 1008.56 1008.88 1009.17 1009.44 1009.69 1009.91 1010.11 1010.30 1010.46 1010.60 1010.70 1010.77 1010.81 1010.82 1010.81 1010.80 1010.80 1010.85 1010.95 1011.11 1011.33 1011.59 1011.90 1012.22 1012.55 1012.88 1013.20 1013.52 1013.85 1014.21 1014.62
1006.13 1006.22 1006.27 1006.31 1006.36 1006.44 1006.57 1006.75 1007.00 1007.28 1007.60 1007.93 1008.25 1008.56 1008.85 1009.11 1009.36 1009.60 1009.83 1010.06 1010.27 1010.46 1010.62 1010.72 1010.78 1010.79 1010.77 1010.73 1010.70 1010.71 1010.77 1010.90 1011.10 1011.36 1011.66 1012.00 1012.33 1012.66 1012.96 1013.24 1013.51 1013.79 1014.10
1006.45 1006.47 1006.45 1006.40 1006.36 1006.37 1006.44 1006.58 1006.79 1007.06 1007.36 1007.66 1007.97 1008.25 1008.52 1008.78 1009.02 1009.28 1009.53 1009.80 1010.06 1010.30 1010.50 1010.65 1010.74 1010.77 1010.75 1010.70 1010.64 1010.62 1010.65 1010.75 1010.94 1011.19 1011.50 1011.84 1012.18 1012.50 1012.78 1013.03 1013.25 1013.45 1013.67
1006.81 1006.80 1006.72 1006.60 1006.50 1006.45 1006.46 1006.56 1006.73 1006.95 1007.21 1007.48 1007.75 1008.00 1008.24 1008.47 1008.71 1008.97 1009.24 1009.53 1009.82 1010.10 1010.35 1010.54 1010.65 1010.70 1010.68 1010.63 1010.57 1010.54 1010.56 1010.65 1010.83 1011.09 1011.40 1011.75 1012.09 1012.42 1012.69 1012.91 1013.08 1013.22 1013.36
1007.12 1007.11 1007.01 1006.87 1006.73 1006.64 1006.61 1006.66 1006.79 1006.97 1007.19 1007.41 1007.64 1007.85 1008.05 1008.26 1008.48 1008.72 1008.99 1009.29 1009.60 1009.90 1010.16 1010.37 1010.50 1010.57 1010.56 1010.52 1010.47 1010.44 1010.47 1010.57 1010.76 1011.03 1011.36 1011.73 1012.08 1012.41 1012.68 1012.88 1013.02 1013.12 1013.21
1007.32 1007.33 1007.25 1007.12 1006.98 1006.88 1006.84 1006.86 1006.96 1007.10 1007.28 1007.46 1007.64 1007.81 1007.98 1008.16 1008.35 1008.57 1008.83 1009.11 1009.41 1009.70 1009.96 1010.17 1010.31 1010.37 1010.38 1010.36 1010.32 1010.32 1010.37 1010.51 1010.73 1011.03 1011.38 1011.76 1012.14 1012.48 1012.75 1012.94 1013.07 1013.14 1013.20
1007.36 1007.42 1007.39 1007.30 1007.19 1007.11 1007.08 1007.11 1007.19 1007.31 1007.46 1007.61 1007.76 1007.90 1008.03 1008.18 1008.34 1008.54 1008.76 1009.01 1009.28 1009.54 1009.77 1009.96 1010.09 1010.15 1010.17 1010.17 1010.16 1010.20 1010.29 1010.47 1010.73 1011.06 1011.45 1011.86 1012.25 1012.60 1012.87 1013.07 1013.19 1013.25 1013.29
1007.24 1007.36 1007.39 1007.37 1007.33 1007.30 1007.30 1007.34 1007.43 1007.55 1007.68 1007.81 1007.94 1008.06 1008.18 1008.30 1008.44 1008.60 1008.79 1009.00 1009.22 1009.43 1009.63 1009.78 1009.88 1009.94 1009.97 1009.99 1010.02 1010.09 1010.24 1010.46 1010.77 1011.14 1011.55 1011.98 1012.39 1012.74 1013.02 1013.21 1013.32 1013.38 1013.42
1006.98 1007.17 1007.28 1007.33 1007.36 1007.40 1007.45 1007.53 1007.63 1007.76 1007.89 1008.02 1008.14 1008.25 1008.36 1008.47 1008.59 1008.72 1008.88 1009.05 1009.22 1009.39 1009.53 1009.65 1009.73 1009.78 1009.82 1009.86 1009.92 1010.04 1010.24 1010.50 1010.85 1011.25 1011.68 1012.11 1012.52 1012.86 1013.13 1013.31 1013.42 1013.48 1013.51
1006.63 1006.88 1007.06 1007.20 1007.30 1007.40 1007.51 1007.62 1007.76 1007.90 1008.04 1008.18 1008.30 1008.42 1008.52 1008.63 1008.74 1008.86 1008.99 1009.13 1009.27 1009.39 1009.50 1009.59 1009.65 1009.70 1009.74 1009.80 1009.91 1010.07 1010.29 1010.59 1010.96 1011.37 1011.79 1012.21 1012.59 1012.91 1013.15 1013.32 1013.41 1013.47 1013.50
Thickness
5770 5772 5773 5771 5766 5761 5756 5752 5748 5744 5742 5737 5733 5728 5725 5724 5722 5722 5722 5720 5717 5715 5715 5716 5715 5714 5712 5710 5707 5703 5701 5701 5701 5696 5693 5695 5698 5699 5700 5701 5701 5702 5702
5764 5763 5763 5761 5758 5754 5750 5747 5743 5740 5737 5733 5730 5725 5722 5719 5718 5717 5716 5715 5713 5711 5712 5714 5714 5713 5711 5708 5705 5701 5698 5699 5699 5694 5687 5682 5686 5691 5694 5696 5697 5697 5697
5760 5758 5755 5753 5750 5747 5745 5742 5738 5734 5731 5728 5723 5718 5716 5713 5710 5708 5708 5710 5709 5708 5708 5710 5712 5711 5710 5707 5704 5701 5700 5697 5696 5697 5691 5681 5678 5683 5687 5689 5692 5693 5692
5760 5755 5751 5746 5745 5743 5741 5738 5734 5730 5727 5722 5716 5712 5708 5704 5702 5701 5701 5703 5705 5704 5703 5704 5707 5709 5708 5706 5704 5702 5701 5698 5694 5693 5694 5693 5690 5682 5678 5681 5684 5686 5686
5757 5751 5747 5743 5741 5739 5737 5733 5728 5723 5720 5716 5712 5708 5703 5700 5697 5697 5696 5696 5697 5697 5698 5698 5701 5702 5703 5701 5701 5701 5700 5698 5695 5693 5691 5690 5689 5688 5680 5673 5674 5677 5678
5751 5747 5744 5740 5735 5733 5730 5726 5720 5716 5714 5711 5708 5704 5700 5696 5693 5691 5688 5687 5688 5689 5690 5690 5692 5695 5696 5696 5696 5698 5698 5696 5695 5694 5692 5690 5688 5686 5682 5674 5670 5670 5671
5746 5742 5738 5733 5729 5725 5723 5719 5714 5710 5708 5705 5703 5700 5697 5695 5692 5688 5684 5681 5681 5682 5684 5685 5687 5690 5690 5691 5692 5693 5693 5694 5692 5691 5691 5692 5692 5691 5686 5677 5669 5666 5666
5743 5740 5736 5732 5727 5723 5719 5715 5710 5707 5703 5700 5698 5696 5694 5692 5689 5686 5683 5680 5679 5678 5679 5680 5681 5684 5685 5686 5687 5688 5689 5691 5690 5690 5689 5689 5690 5690 5689 5683 5674 5665 5662
5742 5739 5733 5728 5725 5721 5717 5714 5708 5704 5700 5697 5694 5692 5690 5687 5685 5683 5681 5680 5679 5678 5677 5676 5677 5678 5679 5680 5682 5682 5683 5686 5687 5687 5687 5688 5689 5688 5690 5689 5685 5674 5662
5739 5736 5731 5726 5723 5720 5717 5712 5707 5702 5698 5695 5692 5690 5686 5684 5682 5681 5680 5680 5680 5680 5678 5677 5675 5674 5675 5676 5677 5678 5680 5681 5683 5683 5684 5685 5685 5685 5686 5687 5685 5680 5672
5736 5731 5728 5725 5721 5717 5713 5708 5703 5699 5695 5693 5690 5688 5684 5681 5678 5677 5677 5677 5676 5676 5675 5675 5674 5674 5675 5676 5677 5677 5678 5678 5679 5679 5679 5681 5682 5681 5682 5682 5680 5677 5673
5736 5730 5726 5721 5716 5713 5709 5705 5700 5696 5694 5692 5689 5685 5682 5678 5674 5672 5672 5673 5672 5672 5671 5671 5671 5672 5674 5676 5676 5677 5677 5677 5676 5676 5676 5678 5679 5677 5678 5678 5677 5674 5672
5732 5726 5720 5715 5712 5710 5706 5702 5697 5694 5691 5689 5685 5682 5679 5675 5672 5671 5671 5671 5670 5669 5669 5669 5669 5671 5674 5675 5675 5675 5675 5675 5675 5676 5676 5677 5676 5674 5674 5675 5675 5673 5671
5729 5722 5715 5712 5709 5706 5703 5699 5695 5691 5688 5684 5680 5677 5675 5673 5671 5669 5668 5668 5668 5667 5667 5668 5669 5670 5671 5672 5673 5672 5672 5671 5673 5675 5676 5677 5676 5675 5674 5673 5674 5672 5668
5722 5719 5715 5711 5707 5703 5701 5697 5693 5688 5684 5679 5675 5672 5671 5669 5667 5664 5663 5663 5661 5661 5661 5662 5663 5665 5666 5668 5669 5669 5669 5668 5669 5672 5675 5676 5676 5676 5675 5674 5672 5671 5666
5720 5719 5717 5713 5708 5704 5700 5696 5690 5685 5680 5674 5671 5669 5665 5663 5661 5659 5658 5656 5656 5655 5655 5656 5657 5659 5662 5665 5667 5667 5666 5666 5667 5669 5672 5674 5674 5675 5675 5674 5672 5672 5668
5717 5715 5713 5710 5707 5704 5700 5694 5689 5683 5676 5672 5669 5664 5660 5658 5656 5654 5651 5649 5649 5649 5649 5650 5651 5652 5655 5659 5662 5664 5664 5664 5665 5666 5667 5670 5672 5673 5672 5672 5671 5670 5670
5709 5706 5704 5702 5701 5699 5696 5692 5686 5679 5674 5670 5666 5662 5657 5653 5651 5647 5644 5643 5642 5641 5642 5643 5645 5646 5649 5653 5657 5659 5659 5659 5661 5662 5662 5663 5665 5667 5667 5666 5666 5666 5666
5703 5699 5696 5693 5690 5689 5688 5685 5679 5675 5670 5666 5662 5659 5654 5648 5645 5641 5638 5636 5635 5635 5636 5638 5639 5640 5643 5647 5650 5652 5651 5652 5653 5654 5655 5655 5656 5660 5661 5658 5658 5658 5659
5696 5691 5687 5684 5681 5679 5678 5674 5668 5665 5662 5661 5658 5655 5651 5646 5641 5636 5632 5630 5629 5629 5630 5632 5634 5636 5638 5641 5644 5645 5644 5643 5644 5645 5646 5647 5650 5654 5654 5653 5651 5651 5653
5689 5685 5681 5675 5671 5670 5668 5662 5658 5655 5653 5652 5650 5646 5642 5638 5635 5629 5625 5623 5622 5622 5623 5626 5629 5631 5634 5636 5638 5639 5637 5636 5636 5636 5636 5639 5643 5647 5648 5647 5646 5648 5648
5683 5679 5673 5668 5665 5663 5659 5652 5647 5646 5644 5641 5638 5634 5630 5627 5624 5620 5617 5615 5614 5613 5616 5619 5621 5625 5629 5631 5633 5634 5634 5633 5631 5631 5631 5633 5637 5639 5640 5639 5638 5638 5638
5678 5673 5668 5664 5660 5656 5653 5645 5641 5638 5634 5629 5625 5622 5619 5615 5612 5609 5607 5606 5606 5606 5609 5611 5614 5617 5622 5625 5628 5630 5630 5629 5627 5627 5627 5629 5631 5632 5631 5630 5630 5630 5629
5674 5670 5664 5659 5655 5651 5647 5642 5638 5633 5628 5622 5616 5612 5607 5602 5599 5597 5597 5597 5598 5600 5603 5605 5608 5611 5615 5618 5621 5623 5624 5624 5622 5621 5621 5622 5622 5622 5622 5621 5621 5621 5622
5672 5667 5662 5656 5652 5647 5641 5638 5633 5628 5622 5616 5611 5605 5599 5593 5588 5586 5587 5590 5594 5598 5600 5603 5605 5607 5610 5614 5618 5619 5619 5619 5617 5614 5612 5611 5611 5611 5610 5611 5612 5613 5613
5670 5665 5661 5656 5650 5646 5640 5636 5631 5626 5619 5613 5607 5602 5596 5590 5586 5583 5583 5586 5591 5597 5601 5603 5605 5607 5611 5615 5616 5616 5616 5614 5612 5609 5606 5605 5604 5604 5603 5603 5604 5605 5606